Estación Meteorológica Peña el Pijo (Robertgarden) [ 09/30/20 00:20:53 CEST ]

Fecha Hora Presion(HPa) Temp (°C) Humedad % Rocio (°C) Viento ( m/s) Direccion Lluvia 1Hora(mm) Lluvia 24H(mm) LLuvia Total(mm)
2020-Mar-05 01:09:46 1008.200 - - - - N     39.88
2020-Mar-05 02:09:36 1007.800 - - - - N     39.88
2020-Mar-05 03:09:44 1006.900 - - - - N     39.88
2020-Mar-05 04:09:15 1006.200 - - - - N     39.88
2020-Mar-05 05:09:01 1005.500 - - - - N     39.88
2020-Mar-05 06:09:08 1004.900 - - - - N     39.88
2020-Mar-05 07:09:25 1004.500 - - - - N     39.88
2020-Mar-05 08:09:23 1004.400 - - - - N     39.88
2020-Mar-05 09:09:29 1004.600 - - - - N     39.88
2020-Mar-05 10:09:14 1004.500 - - - - N     39.88
2020-Mar-05 11:09:34 1004.800 - - - - N     39.88
2020-Mar-05 12:08:59 1004.200 - - - - N     39.88
2020-Mar-05 13:09:04 1003.500 - - - - N     39.88
2020-Mar-05 14:09:34 1002.600 - - - - N     39.88
2020-Mar-05 15:08:45 1002.700 - - - - N     39.88
2020-Mar-05 16:09:05 1002.800 - - - - N     39.88
2020-Mar-05 17:08:58 1002.700 - - - - N     39.88
2020-Mar-05 18:09:04 1003.200 - - - - N     39.88
2020-Mar-05 19:08:54 1003.400 - - - - N     39.88
2020-Mar-05 20:09:15 1004.000 - - - - N     39.88
2020-Mar-05 21:09:42 1003.800 - - - - N     39.88
2020-Mar-05 22:09:10 1004.000 - - - - N     39.88
2020-Mar-05 23:09:05 1004.100 - - - - N     39.88

Temperatura Máxima:    Temperatura Mínima:
Presión Máxima:1008.200 Hpa    Presión Mínima:1002.600 Hpa


Volver